Observations for Trim Patrick St
| Time | AQI | Temp °C | Hum % | Pres Pa | CO μg/m³ | H₂S μg/m³ | NO μg/m³ | NO₂ μg/m³ | O₃ μg/m³ | SO₂ μg/m³ | PM1 μg/m³ | PM2.5 μg/m³ | PM10 μg/m³ |
|---|---|---|---|---|---|---|---|---|---|---|---|---|---|
| Wednesday 26 August 2026 | |||||||||||||
| 12:17 | 2 | 19.8 | 80 | 38,460 | 0.11 | 0 | 2.55 | 14.19 | 29.63 | 0.45 | 15.71 | 19.91 | 21.9 |
| 12:16 | 2 | 19.7 | 80 | 38,460 | 0.12 | 0 | 3.03 | 18.45 | 30.26 | 0.39 | 14 | 21.37 | 23.5 |
| 12:15 | 2 | 19.7 | 80 | 38,460 | 0.1 | 0 | 2.9 | 12.23 | 31.99 | 0 | 15.71 | 19.91 | 21.9 |
| 12:14 | 2 | 19.7 | 80 | 38,460 | 0.1 | 0 | 1.85 | 11.17 | 37.17 | 0.21 | 14.86 | 19.89 | 21.88 |
| 12:13 | 2 | 19.7 | 80 | 38,460 | 0.1 | 0 | 1.99 | 10.3 | 37.2 | 0 | 15.71 | 21.27 | 23.39 |
| 12:12 | 2 | 19.7 | 81 | 38,460 | 0.15 | 0 | 1.81 | 19.68 | 30.82 | 0 | 14.86 | 17.74 | 19.51 |
| 12:11 | 2 | 19.7 | 81 | 38,460 | 0.11 | 0 | 1.6 | 12.08 | 35.75 | 0 | 15.71 | 19.14 | 21.05 |
| 12:10 | 2 | 19.6 | 81 | 38,460 | 0.16 | 0 | 1.76 | 11.6 | 31.98 | 0 | 14.86 | 20.54 | 22.6 |
| 12:09 | 2 | 19.6 | 81 | 38,460 | 0.13 | 0 | 1.59 | 13.69 | 30.62 | 0 | 14 | 18.41 | 20.25 |
| 12:08 | 2 | 19.6 | 81 | 38,460 | 0.15 | 0 | 1.28 | 21.07 | 34.64 | 0 | 15.71 | 19.1 | 21.01 |
| 12:07 | 2 | 19.6 | 81 | 38,460 | 0.14 | 0 | 1.84 | 17.9 | 31.53 | 0.45 | 14 | 20.54 | 22.6 |
| 12:06 | 2 | 19.6 | 81 | 38,460 | 0.16 | 0 | 1.52 | 16.95 | 27.57 | 0.4 | 13.14 | 17.04 | 18.74 |
| 12:05 | 2 | 19.5 | 82 | 38,460 | 0.15 | 0 | 1.03 | 27.24 | 30.17 | 0 | 18.29 | 23.91 | 26.31 |
| 12:04 | 2 | 19.6 | 81 | 38,460 | 0.14 | 0 | 1.31 | 15.67 | 25.98 | 0.62 | 13.14 | 18.43 | 20.27 |
| 12:03 | 2 | 19.5 | 81 | 38,460 | 0.14 | 0 | 1.3 | 21.8 | 27.74 | 0.4 | 14 | 19.08 | 20.99 |
| 12:02 | 2 | 19.5 | 81 | 38,460 | 0.15 | 0 | 1.04 | 20.78 | 31.65 | 0.03 | 15.71 | 20.49 | 22.54 |
| 12:01 | 2 | 19.5 | 81 | 38,460 | 0.15 | 0 | 1.06 | 16.89 | 34.48 | 0 | 14.86 | 21.21 | 23.33 |
| 12:00 | 2 | 19.5 | 81 | 38,460 | 0.14 | 0 | 0.86 | 15.57 | 27.17 | 0 | 15.71 | 20.52 | 22.57 |
| 11:59 | 2 | 19.5 | 82 | 38,460 | 0.13 | 0 | 0.97 | 14.49 | 28.03 | 0 | 14 | 19.76 | 21.73 |
| 11:58 | 2 | 19.4 | 82 | 38,460 | 0.17 | 0 | 1.36 | 20.09 | 33.99 | 0.74 | 14 | 19.05 | 20.96 |